Regional Weather Roundup
Issued by NWS Sterling, VA

Home | Current Version | Previous Version | Graphics & Text | Print | Product List | Glossary On
Versions: 1 2 3 4 5 6 7 8 9 10 11 12 13 14 15 16 17 18 19 20 21 22 23 24 25 26 27 28 29 30 31 32 33 34 35 36 37 38 39 40 41 42 43 44 45 46 47 48 49 50
000
ASUS41 KLWX 311610
RWRLWX

REGIONAL WEATHER ROUNDUP
NATIONAL WEATHER SERVICE BALTIMORE MD/WASHINGTON DC
1200 PM EDT FRI JUL 31 2015

Note: "FAIR" indicates few or no clouds below 12,000 feet
with no significant weather and/or obstructions to visibility.
 TC=TEMPERATURE CELSIUS

 * =Non NWS site. Station does not report precipitation (e.g. rain,
    snow, etc.), thunder, or fog.

DCZ001-MDZ009-015-VAZ040>042-051-053>054-311700-
WASHINGTON METRO

CITY           SKY/WX    TMP DP  RH WIND       PRES   REMARKS
WASHINGTON NAT MOSUNNY   88  61  40 VRB6      29.95S
DULLES         MOSUNNY   84  61  45 VRB5      29.96F
ANDREWS AFB    MOSUNNY   86  58  39 NW12G18   29.94F
FT BELVOIR     SUNNY     86  58  39 W8        29.94F
QUANTICO       MOSUNNY   90  52  27 W5        29.92S
COLLEGE PARK*  SUNNY     86  61  42 W7        29.94S
LEESBURG*      SUNNY     86  64  48 NW14      29.97F
GAITHERSBURG*  SUNNY     82  63  51 CALM      29.99F

$$

MDZ006>007-011-014-311700-
BALTIMORE METRO

CITY           SKY/WX    TMP DP  RH WIND       PRES   REMARKS
BWI AIRPORT    MOSUNNY   86  60  41 NW8       29.93F
MD SCIENCE CTR   N/A     86  58  38 MISG      29.93S
MARTIN STATE   MOSUNNY   88  64  45 N7        29.93F
ANNAPOLIS      SUNNY     84  60  44 NW7       29.93F
FORT MEADE*    SUNNY     84  63  48 NW6       29.96F

$$

MDZ012-015-019>023-311700-
MARYLAND EASTERN SHORE

CITY           SKY/WX    TMP DP  RH WIND       PRES   REMARKS
OCEAN CITY     SUNNY     87  57  35 N9G16     29.91F
SALISBURY      SUNNY     85  59  41 N10       29.92F
BAY BRIDGE AP*   N/A     82  57  42 N6        29.93F
CAMBRIDGE*     SUNNY     84  59  42 N9        29.93F
EASTON*        SUNNY     86  61  42 N7        29.97S

$$

MDZ017>025-311700-
SOUTHERN MARYLAND

CITY           SKY/WX    TMP DP  RH WIND       PRES   REMARKS
PATUXENT RIVER MOSUNNY   84  62  47 NW8       29.93F
ST INIGOES     SUNNY     85  61  44 VRB3      29.93F
LEONARDTOWN*   SUNNY     84  55  37 CALM      29.96S

$$

MDZ003>005-311700-
NORTH CENTRAL MARYLAND

CITY           SKY/WX    TMP DP  RH WIND       PRES   REMARKS
FREDERICK*     SUNNY     88  64  45 VRB5      29.98S
HAGERSTOWN APT SUNNY     84  56  38 W7        29.97S
WESTMINSTER*   SUNNY     82  61  47 NW8       29.97S

$$

MDZ501>502-311700-
WESTERN MARYLAND

CITY           SKY/WX    TMP DP  RH WIND       PRES   REMARKS
OAKLAND*       MOSUNNY   72  64  78 W9        30.10F
CUMBERLAND*    MOSUNNY   82  59  44 CALM      30.02F

$$

VAZ025>031-311700-
SHENANDOAH VALLEY

CITY           SKY/WX    TMP DP  RH WIND       PRES   REMARKS
WINCHESTER*    MOSUNNY   84  57  39 NW9       29.98F
FRONT ROYAL*   FAIR      81  61  50 W7        29.99S
LURAY*         FAIR      86  57  37 NW8       30.00F
NEW MARKET*    FAIR      81  59  46 N3        29.99F
STAUNTON*      SUNNY     84  55  37 NW3       30.05S
WAYNESBORO*    FAIR      78  56  46 N8        30.05S

$$

WVZ021-048>050-054>055-311700-
EASTERN WEST VIRGINIA PANHANDLE

CITY           SKY/WX    TMP DP  RH WIND       PRES   REMARKS
MARTINSBURG    SUNNY     84  56  38 W7G17     29.98S
PETERSBURG*    MOSUNNY  N/A N/A N/A CALM      30.02S

$$

VAZ036>039-050-311700-
CENTRAL FOOTHILLS

CITY           SKY/WX    TMP DP  RH WIND       PRES   REMARKS
CHARLOTTESVILL SUNNY     84  58  40 N8        30.00S
CULPEPER*      SUNNY     83  61  47 N8        29.98F
ORANGE*        SUNNY     82  59  44 CALM      30.00S
GORDONSVILLE*  FAIR      82  57  42 N6        29.98F
WARRENTON*     FAIR      86  64  48 NW6       29.97S

$$

VAZ055>057-311700-
NORTH AND CENTRAL PIEDMONT

CITY           SKY/WX    TMP DP  RH WIND       PRES   REMARKS
FREDERICKSBRG* SUNNY     87  55  33 N7        29.95F
STAFFORD*      SUNNY     84  58  40 W6        30.00F

$$

NCZ024-NYZ072-PAZ021-071-VAZ022-071-311700-
OTHER REGIONAL OBSERVATIONS

CITY           SKY/WX    TMP DP  RH WIND       PRES   REMARKS
NEW YORK CITY  SUNNY     86  58  38 CALM      29.90F
PHILADELPHIA   MOSUNNY   86  55  34 W8        29.90F
PITTSBURGH     MOSUNNY   81  56  42 W10       29.99F
ROANOKE        MOSUNNY   82  55  39 N8        30.07S
RICHMOND       MOSUNNY   87  62  43 N13       29.96F
RALEIGH        MOSUNNY   85  63  47 NE6G17    29.99R

$$

ANZ530>537-311700-
MARINE OBSERVATIONS

STATION/POSITION TIME  TEMP    WIND        PRES
                       AIR SEA DIR/SP/G
                 (UTC) (F)     (DEG/KT/KT) (MB)
THOMAS PT LIGHT  NOT AVBL
BALT KEY BRIDGE  1500   81     280/  9/ 11 1013.5S
COVE POINT       1500   79     350/  5/  6 1014.6S
LEWISETTA        1500   81 83  360/  5/  6 1013.8R
SOLOMONS ISLAND  1500      83                N/A
PINEY POINT      1500          320/  7/  8   N/A

$$



USA.gov is the U.S. government's official web portal to all federal, state and local government web resources and services.